Wind_Speed
27 28 29 30 33 37 31 28 28 30 36 34 37 36 33 31 25 22 22 23 26 25 25 27 26 27 24 21 25 25 25 27
28 31 30 31 33 32 27 25 28 29 25 26 45 39 27 24 30 21 20 20 24 30 27 28 26 25 26 23 30 27 27 28
28 29 25 25 22 25 24 24 26 27 25 27 33 38 24 18 21 29 27 19 20 27 31 28 28 25 23 26 26 28 34 32
22 20 17 18 19 21 22 22 24 25 26 24 24 26 34 24 26 22 22 20 19 20 32 29 25 26 27 26 30 34 35 28
21 17 15 17 18 21 20 21 23 25 28 26 29 26 29 30 31 32 27 19 20 18 22 26 28 29 29 32 34 35 31 18
18 17 16 16 17 20 21 22 23 27 28 27 28 25 22 28 26 31 35 22 17 20 23 22 34 32 35 37 40 27 23 18
15 17 16 16 17 20 23 25 26 25 23 23 28 31 25 23 23 41 39 26 17 20 25 26 27 25 33 27 26 26 21 19
15 18 15 16 17 21 25 20 19 24 25 24 26 30 33 31 25 35 39 28 26 20 24 29 29 25 23 25 28 28 24 20
17 17 16 16 17 20 23 21 24 23 24 24 26 28 32 34 36 36 38 29 18 23 22 25 24 24 22 21 28 29 26 24
16 17 15 15 17 20 22 24 24 23 20 23 27 27 31 28 32 35 35 30 19 29 27 24 23 23 25 26 26 30 29 26
13 12 11 12 17 19 22 22 21 23 22 18 23 27 30 28 37 36 31 24 22 21 30 27 27 28 28 28 25 32 32 28
11 9 11 12 15 17 18 21 19 20 24 22 18 29 33 30 40 35 29 23 20 19 19 21 28 29 27 28 28 33 32 31
9 9 10 11 13 13 15 21 15 14 19 19 18 34 28 35 32 31 27 25 24 24 21 22 24 23 24 25 29 32 33 33
9 9 10 11 11 11 14 13 8 10 15 17 19 33 37 36 31 28 27 29 22 24 26 21 23 25 27 31 34 30 31 35
8 10 10 10 9 8 8 7 8 10 10 16 20 29 30 33 32 30 27 27 32 27 26 24 26 27 27 30 30 29 34 35
9 11 11 10 7 8 5 5 7 8 12 13 21 25 33 35 34 31 28 28 28 27 28 31 29 26 26 26 28 26 28 29
11 12 11 11 8 7 6 5 4 5 9 12 14 25 33 35 40 36 35 33 36 33 30 29 30 28 27 26 26 22 25 24
12 13 12 12 10 7 6 5 4 4 6 6 12 17 29 36 39 37 37 34 38 35 33 33 34 31 30 27 27 20 19 21
12 16 15 15 12 10 8 6 4 3 2 4 6 12 18 20 24 39 38 33 32 36 35 34 35 31 28 28 24 22 20 23
11 19 17 17 15 12 10 9 7 5 3 3 4 6 8 21 20 26 38 33 33 32 35 37 38 32 33 31 23 23 28 23
Wind_Direction
270 273 276 275 277 278 279 289 287 292 288 254 262 238 233 237 240 244 245 233 226 215 212 218 220 226 233 233 229 227 235 244
275 269 269 275 281 282 275 282 282 278 286 261 240 250 260 241 224 250 228 237 227 218 216 213 219 224 229 238 239 233 231 232
274 268 272 276 276 279 282 279 273 276 275 265 233 243 222 265 219 243 250 254 234 220 214 218 221 226 231 233 222 226 231 236
277 272 271 267 280 282 291 281 271 268 271 265 261 236 223 226 241 220 226 249 231 233 215 215 222 224 232 227 227 232 239 239
281 271 261 264 282 287 288 290 273 269 272 262 247 233 233 235 246 227 224 236 240 220 208 212 219 224 234 224 232 239 226 222
269 260 252 264 275 286 292 294 277 270 268 262 244 228 229 236 217 215 226 234 224 217 218 217 228 225 234 231 238 238 229 215
261 252 251 260 274 283 290 291 284 278 270 252 241 229 224 223 211 210 228 225 224 225 229 224 230 242 246 252 237 231 212 217
264 248 248 261 275 279 289 286 287 279 267 249 236 230 229 211 207 213 225 230 231 223 232 226 227 235 234 238 221 222 212 214
272 255 251 263 274 279 287 275 282 290 270 242 238 234 222 216 213 214 218 229 226 216 220 210 216 215 219 226 229 225 209 218
267 261 259 268 272 283 282 277 287 285 268 234 237 227 220 215 208 205 219 232 222 217 222 215 220 223 223 229 229 219 215 221
270 260 260 266 275 281 282 287 290 277 254 247 236 217 212 218 200 210 221 231 209 209 217 217 221 227 229 231 231 228 224 224
271 256 258 264 277 281 285 290 296 271 243 247 243 207 209 208 204 208 218 219 204 195 203 213 218 221 229 236 238 235 231 232
258 255 257 270 281 284 291 296 292 263 240 245 217 191 194 189 198 211 210 208 205 207 207 210 224 231 235 246 249 248 238 239
246 252 257 275 284 299 309 304 288 244 247 235 165 178 189 199 203 207 213 215 219 224 215 219 229 231 236 247 249 249 251 241
238 248 259 275 282 296 315 335 287 274 274 243 229 199 202 208 217 216 228 227 229 242 232 240 238 235 239 241 245 252 259 256
236 246 256 268 271 287 303 328 344 277 255 259 242 241 225 218 221 228 227 241 234 245 251 248 231 233 238 246 247 250 256 256
235 242 250 259 258 270 286 315 344 351 299 263 257 239 234 234 232 226 232 244 251 253 252 247 240 246 246 244 246 246 249 244
230 237 244 252 251 254 255 285 297 314 330 306 272 253 238 233 234 234 235 241 244 244 244 251 253 240 246 246 241 261 244 243
228 236 237 245 252 245 230 245 258 261 293 310 317 260 242 226 233 221 224 238 242 241 244 249 249 245 253 252 254 266 240 269
236 235 239 246 250 251 240 234 227 242 273 302 309 322 251 226 222 220 230 237 249 251 250 248 239 249 249 249 263 261 258 262
Height
5770 5771 5770 5769 5766 5763 5762 5761 5762 5760 5757 5750 5754 5756 5764 5767 5768 5772 5778 5780 5785 5790 5795 5799 5804 5807 5811 5815 5820 5822 5824 5826
5765 5766 5766 5764 5760 5757 5757 5758 5757 5757 5756 5755 5753 5758 5763 5763 5765 5769 5773 5778 5781 5785 5790 5794 5799 5803 5807 5813 5816 5818 5820 5822
5760 5760 5759 5757 5756 5753 5752 5753 5753 5751 5752 5752 5746 5753 5759 5761 5764 5766 5771 5773 5778 5781 5785 5790 5794 5800 5804 5808 5812 5814 5816 5818
5753 5752 5752 5752 5751 5749 5748 5748 5748 5747 5746 5747 5742 5748 5753 5759 5764 5766 5769 5772 5777 5777 5780 5785 5791 5795 5800 5804 5808 5809 5811 5815
5747 5746 5747 5748 5746 5745 5743 5742 5741 5739 5740 5741 5743 5745 5749 5753 5757 5763 5765 5770 5774 5776 5778 5783 5786 5791 5795 5799 5801 5803 5808 5811
5742 5742 5742 5743 5742 5740 5739 5737 5735 5734 5735 5735 5736 5740 5743 5748 5753 5757 5760 5768 5771 5773 5775 5778 5782 5785 5790 5793 5795 5800 5804 5808
5737 5737 5738 5738 5737 5735 5733 5731 5729 5728 5728 5730 5731 5735 5740 5744 5745 5751 5755 5764 5767 5770 5772 5775 5777 5782 5784 5788 5794 5798 5802 5805
5732 5732 5732 5732 5731 5729 5727 5726 5725 5723 5723 5724 5727 5731 5736 5739 5743 5747 5752 5758 5763 5765 5767 5768 5771 5776 5780 5785 5791 5793 5797 5800
5727 5726 5727 5726 5725 5724 5722 5720 5720 5719 5717 5718 5721 5724 5729 5734 5738 5742 5748 5753 5757 5763 5764 5765 5766 5770 5777 5781 5786 5789 5793 5796
5721 5721 5721 5720 5721 5719 5717 5715 5714 5713 5712 5712 5716 5719 5723 5728 5733 5738 5744 5749 5755 5758 5760 5762 5765 5768 5773 5777 5782 5786 5788 5792
5716 5716 5716 5717 5717 5715 5712 5710 5709 5707 5707 5709 5710 5714 5718 5723 5729 5733 5738 5743 5750 5753 5755 5756 5761 5764 5768 5773 5778 5782 5785 5787
5711 5712 5713 5714 5713 5711 5709 5706 5704 5701 5702 5703 5704 5708 5714 5718 5725 5730 5734 5738 5742 5749 5751 5754 5755 5758 5763 5768 5772 5776 5778 5781
5708 5709 5710 5711 5710 5708 5706 5701 5700 5698 5699 5699 5700 5704 5710 5717 5723 5728 5731 5734 5738 5745 5748 5751 5753 5756 5759 5763 5767 5771 5773 5775
5704 5706 5707 5708 5707 5705 5702 5698 5697 5697 5697 5697 5701 5705 5710 5715 5719 5724 5728 5731 5734 5739 5745 5746 5750 5752 5755 5757 5760 5765 5767 5769
5701 5703 5704 5705 5705 5703 5701 5698 5698 5697 5698 5698 5700 5705 5709 5712 5716 5720 5725 5728 5731 5734 5737 5742 5745 5747 5750 5753 5754 5757 5758 5761
5698 5699 5701 5702 5702 5701 5699 5697 5695 5695 5697 5699 5700 5702 5706 5710 5713 5717 5719 5724 5728 5730 5731 5736 5740 5743 5745 5747 5748 5750 5751 5754
5694 5696 5697 5698 5700 5700 5699 5697 5695 5695 5695 5696 5697 5699 5702 5705 5709 5712 5716 5720 5724 5725 5729 5731 5734 5737 5740 5740 5742 5743 5743 5745
5691 5692 5693 5695 5697 5697 5698 5697 5696 5695 5694 5694 5695 5696 5697 5700 5704 5707 5712 5716 5719 5722 5724 5726 5728 5731 5734 5734 5735 5737 5736 5737
5688 5688 5690 5691 5692 5694 5694 5694 5695 5695 5694 5693 5694 5694 5694 5696 5698 5703 5708 5712 5714 5716 5718 5721 5722 5724 5725 5728 5729 5730 5731 5732
5684 5684 5686 5687 5688 5690 5692 5693 5693 5693 5693 5691 5690 5690 5691 5694 5697 5700 5704 5706 5708 5709 5712 5714 5715 5716 5717 5719 5721 5724 5725 5727